Location: Powder Track
(41.8531°N, 72.3584°W)
Time: 08:41:17
(UTC+00:00)

Altair - Pass Details

Date: 06 August 2021
Orbit: 1501 x 1682 km, 47.2° (Epoch: 19 September)

Event Time Altitude Azimuth Distance (km) Brightness Sun altitude
Exits shadow 05:52:46 43° 249° (WSW) 2,072 7.8 -30.0°
Maximum altitude 05:56:32 86° 334° (NNW) 1,546 7.4 -29.8°
Drops below altitude 10° 06:05:50 10° 66° (ENE) 3,671 10.0 -29.3°
Sets 06:08:50 0° 67° (ENE) 4,644 10.6 -29.1°
